This demonstration page uses our WeatherBlox Daily Observations layout. Learn more.

Left ArrowRight Arrow

30.21309, -93.2044

Hourly Observations for August 29, 2020

Temp ( °F °C ) Dew Point ( °F °C ) Humidity (%) Winds ( mph kmh ) Pressure ( in mb ) Visibility ( mi km ) Precip ( " mm )
12:15 am 00:15 Clear 81 27 79 26.3 96 96 S 7 11 29.90 1013 10 16 0.00 0.00
12:35 am 00:35 Partly Cloudy 81 27 79 26.3 96 96 S 6 9 29.90 1013 10 16 0.00 0.00
12:55 am 00:55 Mostly Cloudy 80 26.9 79 26.3 97 97 SSE 6 9 29.90 1013 10 16 0.00 0.00
1:15 am 01:15 Partly Cloudy 80 26.9 79 26.2 96 96 SSE 7 11 29.89 1012 10 16 0.00 0.00
1:35 am 01:35 Partly Cloudy 80 26.7 79 26.1 97 97 S 6 9 29.89 1012 10 16 0.00 0.00
1:55 am 01:55 Partly Cloudy 80 26.6 79 26 97 97 SSE 5 7 29.89 1012 10 16 0.00 0.00
2:15 am 02:15 Clear 80 26.5 79 26 97 97 S 5 7 29.89 1012 10 16 0.00 0.00
2:35 am 02:35 Clear 79 26.3 78 25.8 97 97 S 3 6 29.89 1012 10 16 0.00 0.00
2:55 am 02:55 Clear 79 26.2 78 25.8 98 98 S 5 7 29.89 1012 10 16 0.00 0.00
3:15 am 03:15 Clear 78 25.8 78 25.4 98 98 SSE 3 6 29.89 1012 7 11 0.00 0.00
3:35 am 03:35 Clear with Mist and Fog 78 25.4 77 25.2 99 99 S 3 6 29.88 1012 7 11 0.00 0.00
3:55 am 03:55 Clear 78 25.6 78 25.4 99 99 SSE 3 6 29.88 1012 7 11 0.00 0.00
4:15 am 04:15 Clear with Mist and Fog 78 25.6 78 25.5 99 99 Calm 29.88 1012 2 3 0.00 0.00
4:35 am 04:35 Partly Cloudy with Mist and Fog 78 25.4 77 25.2 99 99 SE 5 7 29.88 1012 7 11 0.00 0.00
4:55 am 04:55 Partly Cloudy 78 25.3 77 25.1 99 99 SSE 6 9 29.89 1012 7 11 0.00 0.00
5:15 am 05:15 Partly Cloudy 78 25.5 78 25.3 99 99 SSE 5 7 29.89 1012 10 16 0.00 0.00
5:35 am 05:35 Mostly Cloudy 78 25.5 78 25.4 99 99 SSE 5 7 29.89 1012 10 16 0.00 0.00
6:00 am 06:00 Partly Cloudy 79 26 77 25 94 94 Calm 29.90 1013 10 16 0.00 0.00
6:55 am 06:55 Mostly Sunny 81 27 79 26 94 94 Calm 29.90 1013 10 16 0.00 0.00
7:55 am 07:55 Partly Cloudy 82 28 81 27 94 94 Calm 29.91 1013 10 16 0.00 0.00
8:55 am 08:55 Partly Cloudy 84 29 81 27 89 89 SW 7 11 29.92 1013 10 16 0.00 0.00
9:48 am 09:48 Mostly Cloudy 88 31 79 26 75 75 SW 6 9 29.93 1014 10 16 0.00 0.00
10:52 am 10:52 Mostly Cloudy 88 31 75 24 66 66 WSW 8 13 29.93 1014 10 16 0.00 0.00
11:51 am 11:51 Mostly Cloudy 90 32 79 26 71 71 SW 7 11 29.91 1013 10 16 0.00 0.00
12:55 pm 12:55 Mostly Cloudy 91 33 77 25 63 63 SSW 8 13 29.89 1012 10 16 0.00 0.00
1:51 pm 13:51 Mostly Cloudy with Light Rain 82 28 77 25 84 84 ENE 7 11 29.89 1012 4 6 0.00 0.00
2:45 pm 14:45 Mostly Cloudy 82 28 75 24 79 79 SSE 5 7 29.88 1012 10 16 0.00 0.00
3:51 pm 15:51 Partly Cloudy 90 32 77 25 67 67 SSW 9 15 29.86 1011 10 16 0.00 0.00
4:47 pm 16:47 Partly Cloudy 90 32 79 26 71 71 SSW 10 17 29.85 1011 10 16 0.00 0.00
5:55 pm 17:55 Partly Cloudy 88 31 79 26 75 75 S 10 17 29.85 1011 10 16 0.00 0.00
6:50 pm 18:50 Mostly Sunny 88 31 79 26 75 75 S 9 15 29.85 1011 10 16 0.00 0.00
7:55 pm 19:55 Mostly Clear 84 29 79 26 84 84 S 7 11 29.85 1011 10 16 0.00 0.00
8:50 pm 20:50 Mostly Clear 82 28 79 26 89 89 S 7 11 29.85 1011 10 16 0.00 0.00
9:50 pm 21:50 Mostly Clear 82 28 79 26 89 89 S 7 11 29.86 1011 10 16 0.00 0.00
10:15 pm 22:15 Clear 81 27.4 79 26.1 93 93 S 7 11 29.86 1011 10 16 0.00 0.00
10:35 pm 22:35 Clear 81 27.2 79 26.1 94 94 SSE 7 11 29.86 1011 10 16 0.00 0.00
10:55 pm 22:55 Clear 81 27 79 26 94 94 S 5 7 29.86 1011 10 16 0.00 0.00
11:15 pm 23:15 Clear 80 26.9 79 25.9 94 94 S 6 9 29.86 1011 10 16 0.00 0.00
11:35 pm 23:35 Clear 80 26.9 79 25.9 94 94 S 6 9 29.85 1011 10 16 0.00 0.00
11:55 pm 23:55 Clear 82 27.5 79 25.9 91 91 SSW 6 9 29.86 1011 10 16 0.00 0.00

Powered by AerisWeather